Wellsville, NY

11:49 AM EDT on August 16, 2017 (GMT -0400)
Wellsville Municipal-Tarantine

Weather History for KELZ - August, 2013

Change the Weather History Date:

Tuesday, August 27, 2013

  Actual Average (KDSV) Record (KDSV)
Temperature  
Mean Temperature 72 °F -  
Max Temperature 80 °F 82 °F 98 °F (1948)
Min Temperature 64 °F 56 °F 41 °F (1954)
Cooling Degree Days 6    
Growing Degree Days 22 (Base 50)    
Moisture  
Dew Point 65 °F    
Average Humidity 84    
Maximum Humidity 94    
Minimum Humidity 60    
Precipitation  
Precipitation 0.46 in - - ()
Sea Level Pressure  
Sea Level Pressure 30.00 in    
Wind  
Wind Speed 5 mph (West)    
Max Wind Speed 18 mph    
Max Gust Speed 25 mph    
Visibility 8 miles    
Events Rain , Thunderstorm    
Averages and records for this station are not official NWS values.
T = Trace of Precipitation, MM = Missing Value Source: NWS Daily Summary

Daily Weather History Graph

Daily Weather History Graph

Search for Another Location

Airport or City:

Trip Planner

Search our weather history database for the weather conditions in past years. The results will help you decide how hot, cold, wet, or windy it might be!

Date:

Astronomy

Aug. 27, 2013 Rise Set
Actual Time 6:32 AM EDT 7:53 PM EDT
Civil Twilight 6:03 AM EDT 8:22 PM EDT
Nautical Twilight 5:28 AM EDT 8:57 PM EDT
Astronomical Twilight 4:51 AM EDT 9:34 PM EDT
Moon 11:37 PM EDT (8/27) 1:36 PM EDT (8/27)
Length of Visible Light 14h 19m
Length of Day
13h 21m
Waning Gibbous, 57% of the Moon is Illuminated
Aug 27
Waning Gibbous
Aug 28
Last Quarter
Sep 5
New
Sep 12
First Quarter
Sep 19
Full

Hourly Weather History & Observations

Time (EDT) Temp. Dew Point Humidity Pressure Visibility Wind Dir Wind Speed Gust Speed Precip Events Conditions
12:56 AM 66.0 °F 63.0 °F 90% 30.00 in 10.0 mi West 9.2 mph - N/A   Partly Cloudy
1:56 AM 64.9 °F 63.0 °F 93% 29.99 in 10.0 mi West 8.1 mph - N/A   Partly Cloudy
2:08 AM 64.4 °F 62.6 °F 94% 30.03 in 10.0 mi West 9.2 mph - N/A   Mostly Cloudy
2:56 AM 64.9 °F 63.0 °F 93% 30.00 in 9.0 mi West 3.5 mph - N/A   Overcast
3:31 AM 64.4 °F 62.6 °F 94% 30.03 in 7.0 mi Calm Calm - N/A   Overcast
3:56 AM 64.9 °F 63.0 °F 93% 29.99 in 6.0 mi Calm Calm - N/A   Overcast
4:43 AM 64.4 °F 62.6 °F 94% 30.02 in 7.0 mi West 5.8 mph - N/A   Overcast
4:56 AM 66.0 °F 64.0 °F 93% 29.99 in 6.0 mi West 4.6 mph - N/A   Overcast
5:56 AM 66.0 °F 64.0 °F 93% 30.01 in 5.0 mi West 5.8 mph - N/A   Overcast
6:26 AM 66.2 °F 64.4 °F 94% 30.03 in 5.0 mi WNW 5.8 mph - N/A   Overcast
6:35 AM 66.2 °F 64.4 °F 94% 30.03 in 4.0 mi West 4.6 mph - N/A   Overcast
6:56 AM 66.0 °F 64.0 °F 93% 30.01 in 3.0 mi West 5.8 mph - N/A   Overcast
7:32 AM 66.2 °F 64.4 °F 94% 30.04 in 4.0 mi West 5.8 mph - N/A   Overcast
7:56 AM 66.0 °F 64.0 °F 93% 30.01 in 4.0 mi West 5.8 mph - N/A   Overcast
8:56 AM 66.9 °F 64.0 °F 90% 30.02 in 5.0 mi WNW 3.5 mph - N/A   Overcast
9:20 AM 68.0 °F 64.4 °F 88% 30.05 in 6.0 mi NW 4.6 mph - N/A   Overcast
9:56 AM 69.1 °F 64.9 °F 87% 30.01 in 7.0 mi WNW 4.6 mph - N/A   Overcast
10:26 AM 69.8 °F 64.4 °F 83% 30.04 in 7.0 mi Variable 3.5 mph - N/A   Overcast
10:56 AM 71.1 °F 64.9 °F 81% 30.00 in 10.0 mi Calm Calm - N/A   Overcast
11:31 AM 71.6 °F 64.4 °F 78% 30.04 in 10.0 mi Variable 3.5 mph - N/A   Mostly Cloudy
11:56 AM 73.9 °F 66.0 °F 76% 30.01 in 10.0 mi West 4.6 mph - N/A   Scattered Clouds
12:07 PM 73.4 °F 66.2 °F 78% 30.04 in 10.0 mi Variable 4.6 mph - N/A   Mostly Cloudy
12:56 PM 75.9 °F 66.9 °F 74% 30.01 in 10.0 mi Variable 6.9 mph - N/A   Mostly Cloudy
1:56 PM 75.9 °F 66.0 °F 71% 29.99 in 10.0 mi West 8.1 mph - N/A   Mostly Cloudy
2:10 PM 78.8 °F 66.2 °F 65% 30.02 in 10.0 mi West 6.9 mph - N/A   Scattered Clouds
2:56 PM 79.0 °F 66.9 °F 66% 29.96 in 10.0 mi WNW 5.8 mph - N/A   Partly Cloudy
3:56 PM 79.0 °F 64.0 °F 60% 29.94 in 10.0 mi West 4.6 mph - N/A   Clear
4:56 PM 79.0 °F 64.9 °F 62% 29.94 in 10.0 mi West 3.5 mph - N/A   Clear
5:56 PM 78.1 °F 68.0 °F 71% 29.94 in 10.0 mi Calm Calm - N/A   Partly Cloudy
6:56 PM 77.0 °F 66.0 °F 69% 29.93 in 10.0 mi Calm Calm - N/A   Clear
7:56 PM 73.9 °F 66.0 °F 76% 29.94 in 10.0 mi Calm Calm - N/A   Partly Cloudy
8:56 PM 73.0 °F 66.0 °F 79% 29.96 in 10.0 mi Calm Calm - N/A Thunderstorm Mostly Cloudy
9:19 PM 71.6 °F 66.2 °F 83% 30.00 in 10.0 mi North 10.4 mph - N/A   Overcast
9:44 PM 69.8 °F 64.4 °F 83% 30.02 in 1.8 mi WNW 18.4 mph 25.3 mph 0.17 in Rain Heavy Rain
9:51 PM 68.0 °F 64.4 °F 88% 30.02 in 1.0 mi Variable 3.5 mph 25.3 mph 0.45 in Rain , Thunderstorm Heavy Thunderstorms and Rain
9:56 PM 68.0 °F 64.9 °F 90% 29.99 in 2.0 mi SSW 5.8 mph - 0.46 in Rain , Thunderstorm Light Thunderstorms and Rain
9:59 PM 66.2 °F 64.4 °F 94% 30.01 in 5.0 mi SW 4.6 mph - 0.00 in Rain , Thunderstorm Light Thunderstorms and Rain
10:09 PM 68.0 °F 64.4 °F 88% 30.01 in 10.0 mi South 4.6 mph - 0.00 in   Mostly Cloudy
10:56 PM 66.9 °F 64.9 °F 93% 29.98 in 10.0 mi SSW 5.8 mph - 0.00 in   Mostly Cloudy
11:56 PM 66.9 °F 64.0 °F 90% 29.96 in 10.0 mi Calm Calm - N/A   Overcast